Location: ????????
(60.5616°N, 46.8254°E)
Time: 09:22:34
(UTC+00:00)

Spot 2 Rocket - Pass Details

Date: 18 February 2020
Orbit: 758 x 772 km, 98.6° (Epoch: 27 March)

Event Time Altitude Azimuth Distance (km) Brightness Sun altitude
Exits shadow 17:07:27 71° 84° (E) 814 3.3 -24.7°
Maximum altitude 17:07:38 72° 67° (ENE) 811 3.4 -24.7°
Drops below altitude 10° 17:12:44 10° 344° (NNW) 2,323 6.4 -25.3°
Sets 17:15:03 0° 343° (NNW) 3,255 7.3 -25.6°
